Boston, MA

11:57 PM EDT on August 30, 2016 (GMT -0400)
East Milton

Weather History for KMQE - May, 2013

Change the Weather History Date:

Friday, May 10, 2013

  Actual Average (KBOS) Record (KBOS)
Temperature  
Mean Temperature 64 °F 56 °F  
Max Temperature 79 °F 64 °F 94 °F (1979)
Min Temperature 54 °F 48 °F 34 °F (1902)
Degree Days  
Heating Degree Days 0 9  
Month to date heating degree days 107  
Since 1 July heating degree days 5488  
Cooling Degree Days 0 0  
Month to date cooling degree days 0  
Year to date cooling degree days 3  
Growing Degree Days 14 (Base 50)    
Moisture  
Dew Point 54 °F    
Average Humidity 70    
Maximum Humidity 97    
Minimum Humidity 42    
Precipitation  
Precipitation 0.00 in 0.10 in 1.43 in (1998)
Month to date precipitation 1.05  
Year to date precipitation 15.72  
Sea Level Pressure  
Sea Level Pressure 29.96 in    
Wind  
Wind Speed 7 mph (SW)    
Max Wind Speed 15 mph    
Max Gust Speed 21 mph    
T = Trace of Precipitation, MM = Missing Value Source: NWS Daily Summary

Daily Weather History Graph

Daily Weather History Graph

Search for Another Location

Airport or City:

Trip Planner

Search our weather history database for the weather conditions in past years. The results will help you decide how hot, cold, wet, or windy it might be!

Date:

Astronomy

May. 10, 2013 Rise Set
Actual Time 5:28 AM EDT 7:53 PM EDT
Civil Twilight 4:57 AM EDT 8:25 PM EDT
Nautical Twilight 4:17 AM EDT 9:04 PM EDT
Astronomical Twilight 3:34 AM EDT 9:48 PM EDT
Moon 5:50 AM EDT (5/10) 8:40 PM EDT (5/10)
Length of Visible Light 15h 28m
Length of Day
14h 25m
New Moon, 0% of the Moon is Illuminated
May 10
New Moon
May 18
First Quarter
May 25
Full
May 31
Last Quarter
Jun 8
New

Hourly Weather History & Observations

Time (EDT) Temp. Dew Point Humidity Pressure Visibility Wind Dir Wind Speed Gust Speed Precip Events Conditions
1:54 AM 55.9 °F 55.0 °F 97% 29.92 in - WNW 5.8 mph - N/A   Unknown
2:54 AM 55.9 °F 55.0 °F 97% 29.93 in - NW 8.1 mph - N/A   Unknown
3:54 AM 55.0 °F 54.0 °F 96% 29.93 in - West 5.8 mph - N/A   Unknown
4:54 AM 54.0 °F 53.1 °F 97% 29.94 in - West 6.9 mph - N/A   Unknown
5:54 AM 55.0 °F 53.1 °F 93% 29.95 in - WSW 6.9 mph - N/A   Unknown
6:54 AM 55.0 °F 53.1 °F 93% 29.96 in - West 6.9 mph - N/A   Unknown
7:54 AM 55.9 °F 55.0 °F 97% 29.97 in - WSW 4.6 mph - N/A   Unknown
8:54 AM 59.0 °F 57.0 °F 93% 29.99 in - West 5.8 mph - N/A   Unknown
9:54 AM 64.9 °F 55.9 °F 73% 29.98 in - West 3.5 mph - N/A   Unknown
10:54 AM 69.1 °F 55.9 °F 63% 29.98 in - Variable 4.6 mph - N/A   Unknown
11:54 AM 73.0 °F 55.0 °F 53% 29.98 in - West 4.6 mph - N/A   Unknown
12:54 PM 75.0 °F 53.1 °F 46% 29.97 in - West 9.2 mph - N/A   Unknown
1:54 PM 75.0 °F 51.1 °F 43% 29.96 in - Calm Calm - N/A   Unknown
2:54 PM 75.9 °F 51.1 °F 42% 29.96 in - Variable 3.5 mph - N/A   Unknown
3:54 PM 75.9 °F 53.1 °F 45% 29.95 in - ENE 8.1 mph - N/A   Unknown
4:54 PM 75.0 °F 55.9 °F 51% 29.95 in - ESE 9.2 mph - N/A   Unknown
5:54 PM 72.0 °F 55.9 °F 57% 29.94 in - SE 6.9 mph - N/A   Unknown
6:54 PM 72.0 °F 54.0 °F 53% 29.94 in - SSE 13.8 mph 19.6 mph N/A   Unknown
7:54 PM 69.1 °F 52.0 °F 54% 29.96 in - South 15.0 mph 18.4 mph N/A   Unknown
8:54 PM 66.0 °F 52.0 °F 60% 29.96 in - South 12.7 mph 19.6 mph N/A   Unknown
9:54 PM 64.9 °F 52.0 °F 63% 29.97 in - South 11.5 mph - N/A   Unknown
10:54 PM 63.0 °F 52.0 °F 67% 29.96 in - South 12.7 mph - N/A   Unknown
11:54 PM 62.1 °F 52.0 °F 70% 29.95 in - SSW 15.0 mph 20.7 mph N/A   Unknown